Tracking 28790 objects as of 19-Apr-2024
HD Live streaming from Space Station
objects crossing your sky now

COSMOS 249 DEB

Track COSMOS 249 DEB now!
10-day predictions


NORAD ID: 18602
Int'l Code: 1968-091DG
Perigee: 728.0 km
Apogee: 1,783.9 km
Inclination: 62.2 °
Period: 110.5 minutes
Semi major axis: 7626 km
RCS: 0.0163 m2 (small)
Launch date: October 20, 1968
Source: Commonwealth of Independent States (former USSR) (CIS)
Launch site: TYURATAM MISSILE AND SPACE COMPLEX (TTMTR)

Note: This is SATELLITE DEBRIS
Your satellite tracking list
Your tracking list is empty




NASA's NSSDC Master Catalog

Two Line Element Set (TLE):
1 18602U 68091DG  24109.80602419  .00009984  00000-0  10007-1 0  9996
2 18602  62.2314  15.3736 0692181  74.4417  29.0736 13.03392161542306
Source of the keplerian elements: AFSPC